Overview Statistics Trail Chart Weather Telemetry Raw packets
 

This is the latest recevied weather packets stored in our database for station/object W8RSN-13. If no packets are shown the sender has not sent any weather packets the latest 10 day(s).

<< 107 108 109 110 111 112 113 >>
Time Temp. Humidity Pressure Rain* Wind** Luminosity Snow
1787877875 36.67° C 28% 1011.4 hPa - - - -
1787877574 37.22° C 29% 1011.3 hPa - - - -
1787877273 37.22° C 28% 1011.3 hPa - - - -
1787876972 37.22° C 28% 1011.5 hPa - - - -
1787876671 37.22° C 27% 1011.4 hPa - - - -
1787876371 37.78° C 26% 1011.4 hPa - - - -
1787876070 38.33° C 25% 1011.5 hPa - - - -
1787875769 37.78° C 26% 1011.5 hPa - - - -
1787875468 37.22° C 27% 1011.6 hPa - - - -
1787875167 37.22° C 28% 1011.6 hPa - - - -
1787874866 37.78° C 28% 1011.4 hPa - - - -
1787874565 37.78° C 28% 1011.5 hPa - - - -
1787874264 37.78° C 25% 1011.5 hPa - - - -
1787873963 37.78° C 25% 1011.5 hPa - - - -
1787873662 37.22° C 26% 1011.7 hPa - - - -
1787873362 36.67° C 29% 1011.5 hPa - - - -
1787873061 36.67° C 31% 1011.8 hPa - - - -
1787872760 36.11° C 32% 1011.9 hPa - - - -
1787872459 36.11° C 33% 1011.9 hPa - - - -
1787872158 36.11° C 33% 1011.7 hPa - - - -
1787871857 36.11° C 33% 1012.1 hPa - - - -
1787871556 36.67° C 31% 1012 hPa - - - -
1787871275 37.22° C 29% 1011.8 hPa - - - -
1787870974 37.22° C 25% 1012.1 hPa - - - -
1787870674 37.22° C 26% 1012.2 hPa - - - -

* Rain since midnight (hover to see other rain measurements)
** Current wind speed in m/s (hover to see current wind gust speed)